QPF
0.01 0.02 0.01 0.01 0.01 0.01 0.01 0.01 0.01 0.01 0.01 0.01 0.01 0.01 0.04 0.04 0.03 0.02 0.02 0.02 0.02 0.01 0.01 0.01 0.01 0.01 0.01 0.00 0.00 0.00 0.01 0.01 0.00 0.00 0.01 0.01 0.00 0.01 0.02 0.01 0.01 0.01 0.02 0.03
0.02 0.02 0.01 0.01 0.02 0.02 0.02 0.02 0.02 0.01 0.01 0.01 0.01 0.01 0.02 0.03 0.02 0.02 0.02 0.02 0.02 0.02 0.02 0.02 0.01 0.01 0.00 0.01 0.00 0.00 0.01 0.01 0.00 0.00 0.01 0.01 0.01 0.01 0.01 0.02 0.02 0.01 0.02 0.03
0.01 0.01 0.01 0.02 0.02 0.02 0.02 0.01 0.01 0.01 0.01 0.01 0.01 0.01 0.01 0.01 0.02 0.02 0.02 0.03 0.03 0.03 0.02 0.02 0.01 0.01 0.01 0.00 0.00 0.00 0.00 0.00 0.00 0.00 0.01 0.01 0.01 0.01 0.01 0.01 0.02 0.02 0.02 0.03
0.00 0.00 0.01 0.02 0.02 0.02 0.02 0.01 0.01 0.02 0.02 0.03 0.02 0.02 0.02 0.01 0.02 0.03 0.04 0.03 0.03 0.03 0.02 0.02 0.02 0.01 0.01 0.01 0.00 0.00 0.00 0.00 0.00 0.00 0.00 0.00 0.01 0.01 0.01 0.01 0.01 0.02 0.01 0.02
0.00 0.00 0.01 0.02 0.02 0.02 0.02 0.01 0.01 0.02 0.02 0.02 0.02 0.02 0.02 0.02 0.02 0.03 0.04 0.05 0.05 0.03 0.02 0.02 0.02 0.02 0.01 0.01 0.00 0.00 0.00 0.00 0.00 0.00 0.00 0.00 0.00 0.00 0.00 0.01 0.01 0.01 0.01 0.01
0.01 0.01 0.01 0.03 0.02 0.02 0.02 0.01 0.01 0.01 0.01 0.02 0.02 0.02 0.02 0.03 0.03 0.04 0.05 0.06 0.05 0.03 0.03 0.02 0.02 0.01 0.01 0.01 0.00 0.00 0.00 0.00 0.00 0.00 0.00 0.00 0.00 0.00 0.00 0.00 0.01 0.01 0.01 0.01
0.01 0.01 0.01 0.02 0.02 0.02 0.02 0.02 0.01 0.01 0.01 0.01 0.02 0.02 0.02 0.02 0.02 0.02 0.03 0.03 0.03 0.03 0.03 0.02 0.02 0.02 0.01 0.00 0.00 0.00 0.00 0.00 0.00 0.00 0.00 0.00 0.00 0.00 0.00 0.00 0.00 0.01 0.00 0.00
0.02 0.03 0.03 0.01 0.02 0.02 0.01 0.01 0.01 0.01 0.01 0.01 0.01 0.01 0.01 0.01 0.02 0.02 0.02 0.02 0.02 0.02 0.02 0.01 0.01 0.01 0.00 0.00 0.00 0.01 0.00 0.00 0.00 0.00 0.00 0.00 0.00 0.00 0.00 0.00 0.00 0.00 0.00 0.00
0.02 0.03 0.03 0.02 0.01 0.01 0.01 0.00 0.01 0.01 0.01 0.01 0.01 0.01 0.01 0.01 0.02 0.02 0.02 0.02 0.02 0.01 0.01 0.00 0.00 0.00 0.00 0.00 0.00 0.00 0.00 0.00 0.00 0.00 0.00 0.00 0.00 0.00 0.00 0.00 0.00 0.00 0.00 0.00
0.01 0.01 0.01 0.01 0.00 0.00 0.01 0.01 0.00 0.01 0.01 0.01 0.01 0.01 0.01 0.01 0.01 0.01 0.01 0.02 0.02 0.01 0.01 0.00 0.00 0.00 0.00 0.01 0.00 0.00 0.00 0.00 0.00 0.00 0.00 0.00 0.00 0.00 0.00 0.00 0.00 0.00 0.00 0.00
0.01 0.00 0.00 0.00 0.00 0.00 0.00 0.00 0.00 0.00 0.00 0.01 0.00 0.00 0.00 0.00 0.01 0.01 0.01 0.02 0.02 0.01 0.00 0.00 0.00 0.00 0.00 0.00 0.00 0.00 0.00 0.00 0.00 0.00 0.00 0.00 0.00 0.00 0.00 0.00 0.00 0.00 0.00 0.00
0.01 0.00 0.00 0.00 0.00 0.00 0.00 0.00 0.00 0.00 0.00 0.01 0.00 0.00 0.00 0.01 0.01 0.02 0.02 0.02 0.01 0.01 0.00 0.00 0.00 0.00 0.00 0.00 0.00 0.00 0.00 0.00 0.00 0.00 0.00 0.00 0.00 0.00 0.00 0.00 0.00 0.00 0.00 0.00
0.00 0.00 0.00 0.00 0.00 0.01 0.00 0.00 0.00 0.00 0.00 0.01 0.00 0.00 0.01 0.02 0.03 0.05 0.04 0.02 0.01 0.00 0.00 0.00 0.00 0.00 0.00 0.00 0.00 0.00 0.00 0.00 0.00 0.00 0.00 0.00 0.00 0.00 0.00 0.00 0.00 0.00 0.00 0.00
0.00 0.00 0.00 0.00 0.00 0.00 0.00 0.00 0.00 0.00 0.00 0.01 0.01 0.02 0.03 0.03 0.03 0.05 0.06 0.03 0.01 0.00 0.00 0.00 0.00 0.00 0.00 0.00 0.00 0.00 0.00 0.00 0.00 0.00 0.00 0.00 0.00 0.00 0.00 0.00 0.00 0.00 0.00 0.00
0.00 0.00 0.00 0.00 0.00 0.00 0.00 0.00 0.00 0.00 0.00 0.01 0.02 0.05 0.05 0.03 0.03 0.04 0.04 0.02 0.00 0.00 0.00 0.00 0.00 0.00 0.00 0.00 0.00 0.00 0.00 0.00 0.00 0.00 0.00 0.00 0.00 0.00 0.00 0.00 0.00 0.00 0.00 0.00
0.00 0.00 0.00 0.00 0.00 0.00 0.00 0.00 0.00 0.00 0.00 0.01 0.01 0.03 0.03 0.02 0.03 0.03 0.02 0.01 0.00 0.00 0.00 0.01 0.01 0.00 0.00 0.00 0.00 0.00 0.00 0.00 0.00 0.00 0.00 0.00 0.00 0.00 0.00 0.00 0.00 0.00 0.00 0.00
0.00 0.01 0.00 0.00 0.00 0.00 0.00 0.00 0.00 0.00 0.00 0.01 0.01 0.01 0.01 0.01 0.02 0.02 0.02 0.01 0.00 0.00 0.00 0.00 0.00 0.00 0.00 0.00 0.00 0.00 0.00 0.00 0.00 0.00 0.00 0.00 0.00 0.00 0.00 0.00 0.00 0.00 0.00 0.00
0.00 0.00 0.00 0.00 0.00 0.00 0.00 0.00 0.00 0.00 0.00 0.00 0.00 0.00 0.00 0.00 0.01 0.01 0.01 0.00 0.00 0.00 0.00 0.00 0.00 0.00 0.00 0.00 0.00 0.00 0.00 0.00 0.00 0.00 0.00 0.00 0.00 0.00 0.00 0.00 0.00 0.00 0.00 0.00
0.00 0.00 0.01 0.01 0.00 0.00 0.00 0.00 0.00 0.00 0.00 0.00 0.00 0.00 0.00 0.00 0.00 0.00 0.00 0.00 0.00 0.00 0.00 0.00 0.00 0.00 0.00 0.00 0.00 0.00 0.00 0.00 0.00 0.00 0.00 0.00 0.00 0.00 0.00 0.00 0.00 0.00 0.00 0.00
0.00 0.00 0.00 0.00 0.00 0.00 0.00 0.00 0.00 0.00 0.01 0.01 0.00 0.00 0.00 0.00 0.00 0.00 0.00 0.00 0.00 0.00 0.00 0.00 0.00 0.00 0.00 0.00 0.00 0.00 0.00 0.00 0.00 0.00 0.00 0.00 0.00 0.00 0.00 0.00 0.00 0.00 0.00 0.00
0.00 0.01 0.01 0.00 0.00 0.00 0.00 0.00 0.00 0.00 0.01 0.01 0.01 0.01 0.00 0.00 0.00 0.00 0.00 0.00 0.00 0.00 0.00 0.00 0.00 0.00 0.00 0.00 0.00 0.00 0.00 0.00 0.00 0.00 0.00 0.00 0.00 0.00 0.00 0.00 0.00 0.00 0.00 0.00
0.00 0.00 0.01 0.00 0.00 0.00 0.00 0.00 0.00 0.00 0.01 0.01 0.01 0.00 0.00 0.00 0.00 0.00 0.00 0.00 0.00 0.00 0.00 0.00 0.00 0.00 0.00 0.00 0.00 0.00 0.00 0.00 0.00 0.00 0.00 0.00 0.00 0.00 0.00 0.00 0.00 0.00 0.00 0.00
0.00 0.00 0.00 0.00 0.00 0.00 0.00 0.00 0.00 0.00 0.00 0.00 0.00 0.00 0.00 0.00 0.00 0.00 0.00 0.00 0.00 0.00 0.00 0.00 0.00 0.00 0.00 0.00 0.00 0.00 0.00 0.00 0.00 0.00 0.00 0.00 0.00 0.00 0.00 0.00 0.00 0.00 0.00 0.00
0.00 0.00 0.00 0.00 0.00 0.00 0.00 0.00 0.00 0.00 0.00 0.00 0.00 0.00 0.00 0.00 0.00 0.00 0.00 0.00 0.00 0.00 0.00 0.00 0.00 0.00 0.00 0.00 0.00 0.00 0.00 0.00 0.00 0.00 0.00 0.00 0.00 0.00 0.00 0.00 0.00 0.00 0.00 0.00
0.00 0.00 0.00 0.00 0.00 0.00 0.00 0.00 0.00 0.00 0.00 0.00 0.00 0.00 0.00 0.00 0.00 0.00 0.00 0.00 0.00 0.00 0.00 0.00 0.00 0.00 0.00 0.00 0.00 0.00 0.00 0.00 0.00 0.00 0.00 0.00 0.00 0.00 0.00 0.00 0.00 0.00 0.00 0.00
0.00 0.00 0.00 0.00 0.00 0.00 0.00 0.00 0.00 0.00 0.00 0.00 0.00 0.00 0.00 0.00 0.00 0.00 0.00 0.00 0.00 0.00 0.00 0.00 0.00 0.00 0.00 0.00 0.00 0.00 0.00 0.00 0.00 0.00 0.00 0.00 0.00 0.00 0.00 0.00 0.00 0.00 0.00 0.00
0.00 0.00 0.00 0.00 0.00 0.00 0.00 0.00 0.00 0.01 0.00 0.00 0.00 0.00 0.00 0.00 0.00 0.00 0.00 0.00 0.00 0.00 0.00 0.00 0.00 0.00 0.00 0.00 0.00 0.00 0.00 0.00 0.00 0.00 0.00 0.00 0.00 0.00 0.00 0.00 0.00 0.00 0.00 0.00
MSLP
1016.68 1016.76 1016.86 1016.99 1017.16 1017.35 1017.56 1017.77 1017.99 1018.23 1018.49 1018.78 1019.15 1019.58 1020.09 1020.68 1021.31 1021.96 1022.60 1023.18 1023.68 1024.08 1024.36 1024.54 1024.63 1024.66 1024.65 1024.62 1024.60 1024.59 1024.59 1024.59 1024.59 1024.55 1024.48 1024.35 1024.17 1023.91 1023.60 1023.23 1022.82 1022.39 1021.95 1021.51
1017.16 1017.22 1017.26 1017.30 1017.36 1017.44 1017.55 1017.71 1017.91 1018.17 1018.49 1018.89 1019.35 1019.89 1020.47 1021.09 1021.72 1022.32 1022.88 1023.36 1023.76 1024.06 1024.28 1024.42 1024.51 1024.57 1024.62 1024.66 1024.71 1024.77 1024.83 1024.88 1024.90 1024.89 1024.83 1024.72 1024.54 1024.30 1024.01 1023.66 1023.28 1022.86 1022.44 1022.03
1017.61 1017.65 1017.65 1017.63 1017.61 1017.62 1017.67 1017.79 1017.99 1018.28 1018.66 1019.12 1019.66 1020.26 1020.88 1021.49 1022.08 1022.61 1023.07 1023.45 1023.73 1023.95 1024.10 1024.22 1024.31 1024.40 1024.50 1024.61 1024.74 1024.86 1024.98 1025.08 1025.14 1025.16 1025.13 1025.04 1024.89 1024.69 1024.43 1024.13 1023.79 1023.43 1023.04 1022.66
1018.02 1018.05 1018.02 1017.95 1017.88 1017.85 1017.87 1017.98 1018.19 1018.51 1018.93 1019.45 1020.04 1020.66 1021.28 1021.87 1022.40 1022.85 1023.20 1023.47 1023.66 1023.78 1023.88 1023.97 1024.07 1024.19 1024.33 1024.50 1024.69 1024.88 1025.05 1025.19 1025.29 1025.34 1025.34 1025.29 1025.18 1025.03 1024.84 1024.60 1024.32 1024.02 1023.68 1023.34
1018.37 1018.38 1018.31 1018.22 1018.13 1018.07 1018.08 1018.20 1018.43 1018.79 1019.26 1019.81 1020.43 1021.06 1021.67 1022.22 1022.69 1023.05 1023.31 1023.48 1023.58 1023.64 1023.69 1023.75 1023.84 1023.98 1024.16 1024.37 1024.60 1024.83 1025.04 1025.21 1025.34 1025.43 1025.46 1025.46 1025.40 1025.31 1025.18 1025.02 1024.82 1024.58 1024.30 1024.00
1018.63 1018.60 1018.51 1018.39 1018.29 1018.23 1018.25 1018.39 1018.66 1019.05 1019.56 1020.15 1020.79 1021.43 1022.02 1022.54 1022.95 1023.25 1023.44 1023.53 1023.57 1023.57 1023.57 1023.61 1023.70 1023.84 1024.03 1024.26 1024.52 1024.76 1024.99 1025.19 1025.34 1025.45 1025.52 1025.55 1025.55 1025.52 1025.46 1025.36 1025.23 1025.06 1024.85 1024.59
1018.78 1018.70 1018.58 1018.45 1018.34 1018.30 1018.34 1018.52 1018.82 1019.26 1019.80 1020.42 1021.09 1021.73 1022.32 1022.82 1023.20 1023.45 1023.59 1023.64 1023.63 1023.59 1023.57 1023.58 1023.66 1023.79 1023.98 1024.21 1024.46 1024.72 1024.95 1025.15 1025.31 1025.44 1025.53 1025.60 1025.64 1025.66 1025.65 1025.62 1025.55 1025.44 1025.28 1025.07
1018.81 1018.69 1018.54 1018.40 1018.30 1018.27 1018.36 1018.57 1018.92 1019.39 1019.98 1020.63 1021.31 1021.97 1022.57 1023.06 1023.42 1023.66 1023.78 1023.81 1023.78 1023.72 1023.68 1023.67 1023.73 1023.85 1024.02 1024.23 1024.47 1024.71 1024.93 1025.13 1025.30 1025.43 1025.54 1025.63 1025.70 1025.75 1025.79 1025.80 1025.78 1025.72 1025.60 1025.43
1018.75 1018.59 1018.42 1018.28 1018.19 1018.20 1018.32 1018.57 1018.97 1019.48 1020.10 1020.78 1021.49 1022.16 1022.76 1023.26 1023.63 1023.87 1024.00 1024.02 1023.98 1023.92 1023.87 1023.85 1023.89 1023.98 1024.13 1024.32 1024.53 1024.75 1024.96 1025.15 1025.31 1025.45 1025.57 1025.67 1025.75 1025.83 1025.89 1025.93 1025.93 1025.90 1025.82 1025.68
1018.62 1018.43 1018.26 1018.13 1018.07 1018.11 1018.28 1018.58 1019.01 1019.56 1020.20 1020.91 1021.62 1022.31 1022.92 1023.43 1023.81 1024.07 1024.20 1024.24 1024.22 1024.16 1024.10 1024.08 1024.09 1024.16 1024.29 1024.45 1024.64 1024.84 1025.03 1025.21 1025.37 1025.51 1025.64 1025.74 1025.84 1025.92 1025.98 1026.03 1026.04 1026.02 1025.95 1025.83
1018.47 1018.27 1018.11 1018.00 1017.98 1018.06 1018.27 1018.61 1019.07 1019.65 1020.31 1021.02 1021.74 1022.43 1023.04 1023.56 1023.95 1024.22 1024.38 1024.43 1024.42 1024.38 1024.32 1024.29 1024.29 1024.35 1024.45 1024.59 1024.76 1024.94 1025.13 1025.31 1025.47 1025.62 1025.75 1025.86 1025.95 1026.03 1026.09 1026.12 1026.13 1026.10 1026.03 1025.92
1018.32 1018.13 1017.99 1017.93 1017.95 1018.08 1018.33 1018.70 1019.18 1019.77 1020.43 1021.13 1021.84 1022.52 1023.12 1023.63 1024.03 1024.31 1024.48 1024.56 1024.56 1024.53 1024.48 1024.45 1024.45 1024.49 1024.57 1024.70 1024.86 1025.04 1025.23 1025.42 1025.59 1025.75 1025.88 1025.99 1026.08 1026.15 1026.19 1026.21 1026.20 1026.15 1026.07 1025.96
1018.19 1018.03 1017.92 1017.90 1017.97 1018.14 1018.42 1018.82 1019.32 1019.90 1020.55 1021.23 1021.91 1022.56 1023.14 1023.64 1024.03 1024.32 1024.50 1024.59 1024.62 1024.60 1024.56 1024.53 1024.53 1024.56 1024.65 1024.77 1024.93 1025.12 1025.31 1025.51 1025.70 1025.87 1026.01 1026.13 1026.22 1026.27 1026.29 1026.28 1026.24 1026.17 1026.07 1025.95
1018.07 1017.94 1017.88 1017.90 1018.01 1018.22 1018.53 1018.94 1019.44 1020.01 1020.62 1021.27 1021.91 1022.53 1023.08 1023.56 1023.94 1024.23 1024.43 1024.53 1024.58 1024.58 1024.56 1024.54 1024.54 1024.58 1024.66 1024.79 1024.95 1025.15 1025.36 1025.57 1025.77 1025.95 1026.10 1026.22 1026.30 1026.34 1026.34 1026.31 1026.24 1026.15 1026.03 1025.89
1017.94 1017.84 1017.82 1017.88 1018.03 1018.27 1018.60 1019.01 1019.50 1020.04 1020.62 1021.23 1021.83 1022.41 1022.93 1023.39 1023.77 1024.06 1024.27 1024.40 1024.46 1024.49 1024.49 1024.49 1024.51 1024.56 1024.65 1024.78 1024.94 1025.14 1025.35 1025.57 1025.78 1025.96 1026.12 1026.23 1026.30 1026.33 1026.31 1026.26 1026.17 1026.05 1025.91 1025.76
1017.78 1017.71 1017.72 1017.81 1017.98 1018.24 1018.58 1018.98 1019.45 1019.97 1020.52 1021.09 1021.65 1022.19 1022.69 1023.14 1023.51 1023.81 1024.04 1024.20 1024.30 1024.35 1024.38 1024.41 1024.45 1024.51 1024.60 1024.73 1024.90 1025.09 1025.30 1025.51 1025.71 1025.89 1026.03 1026.13 1026.18 1026.19 1026.16 1026.08 1025.98 1025.85 1025.70 1025.55
1017.59 1017.54 1017.56 1017.67 1017.86 1018.12 1018.45 1018.85 1019.29 1019.78 1020.30 1020.83 1021.37 1021.88 1022.37 1022.81 1023.19 1023.51 1023.77 1023.96 1024.10 1024.20 1024.27 1024.32 1024.38 1024.46 1024.55 1024.68 1024.83 1025.00 1025.19 1025.38 1025.55 1025.70 1025.82 1025.90 1025.93 1025.92 1025.86 1025.77 1025.66 1025.52 1025.38 1025.24
1017.36 1017.31 1017.35 1017.46 1017.65 1017.91 1018.23 1018.61 1019.03 1019.49 1019.98 1020.49 1021.00 1021.50 1021.99 1022.43 1022.83 1023.18 1023.47 1023.71 1023.89 1024.03 1024.14 1024.23 1024.31 1024.39 1024.49 1024.60 1024.73 1024.88 1025.03 1025.18 1025.31 1025.42 1025.50 1025.54 1025.54 1025.50 1025.43 1025.33 1025.21 1025.08 1024.95 1024.82
1017.11 1017.07 1017.11 1017.22 1017.40 1017.64 1017.94 1018.30 1018.70 1019.14 1019.61 1020.10 1020.59 1021.09 1021.57 1022.03 1022.45 1022.82 1023.15 1023.43 1023.66 1023.84 1023.99 1024.10 1024.21 1024.30 1024.39 1024.49 1024.60 1024.70 1024.81 1024.91 1024.99 1025.06 1025.09 1025.09 1025.05 1024.99 1024.90 1024.79 1024.67 1024.54 1024.43 1024.32
1016.90 1016.85 1016.88 1016.98 1017.14 1017.36 1017.64 1017.98 1018.35 1018.77 1019.22 1019.69 1020.17 1020.66 1021.14 1021.61 1022.05 1022.45 1022.81 1023.12 1023.38 1023.60 1023.78 1023.92 1024.04 1024.15 1024.24 1024.32 1024.40 1024.47 1024.54 1024.59 1024.62 1024.63 1024.62 1024.57 1024.50 1024.41 1024.31 1024.19 1024.07 1023.96 1023.85 1023.77
1016.75 1016.70 1016.71 1016.79 1016.93 1017.13 1017.38 1017.69 1018.04 1018.43 1018.85 1019.30 1019.77 1020.25 1020.72 1021.18 1021.63 1022.04 1022.41 1022.74 1023.03 1023.27 1023.48 1023.64 1023.78 1023.89 1023.99 1024.06 1024.12 1024.17 1024.20 1024.22 1024.21 1024.18 1024.12 1024.05 1023.95 1023.84 1023.72 1023.59 1023.48 1023.37 1023.27 1023.20
1016.69 1016.64 1016.63 1016.69 1016.81 1016.98 1017.20 1017.47 1017.78 1018.14 1018.54 1018.96 1019.40 1019.85 1020.30 1020.75 1021.18 1021.58 1021.95 1022.29 1022.58 1022.84 1023.06 1023.24 1023.39 1023.51 1023.62 1023.70 1023.75 1023.79 1023.81 1023.80 1023.77 1023.72 1023.64 1023.54 1023.43 1023.30 1023.17 1023.04 1022.92 1022.81 1022.72 1022.65
1016.74 1016.68 1016.66 1016.69 1016.77 1016.90 1017.09 1017.32 1017.60 1017.92 1018.27 1018.65 1019.05 1019.47 1019.88 1020.30 1020.69 1021.07 1021.42 1021.74 1022.02 1022.28 1022.50 1022.69 1022.86 1023.00 1023.11 1023.21 1023.28 1023.33 1023.35 1023.35 1023.32 1023.26 1023.18 1023.07 1022.95 1022.82 1022.69 1022.55 1022.43 1022.31 1022.22 1022.14
1016.89 1016.81 1016.77 1016.77 1016.82 1016.91 1017.05 1017.24 1017.47 1017.74 1018.04 1018.37 1018.72 1019.08 1019.45 1019.81 1020.16 1020.49 1020.80 1021.09 1021.35 1021.59 1021.81 1022.01 1022.19 1022.35 1022.49 1022.61 1022.71 1022.78 1022.82 1022.84 1022.83 1022.78 1022.71 1022.62 1022.50 1022.37 1022.24 1022.10 1021.97 1021.85 1021.74 1021.64
1017.09 1017.00 1016.94 1016.90 1016.91 1016.96 1017.05 1017.18 1017.36 1017.58 1017.82 1018.10 1018.39 1018.69 1018.99 1019.29 1019.58 1019.85 1020.11 1020.36 1020.59 1020.81 1021.02 1021.22 1021.41 1021.59 1021.75 1021.90 1022.03 1022.14 1022.22 1022.26 1022.28 1022.26 1022.21 1022.13 1022.02 1021.90 1021.77 1021.64 1021.50 1021.37 1021.24 1021.13
1017.31 1017.20 1017.10 1017.03 1017.00 1017.00 1017.04 1017.12 1017.25 1017.40 1017.59 1017.80 1018.02 1018.26 1018.49 1018.72 1018.95 1019.17 1019.38 1019.58 1019.78 1019.97 1020.16 1020.35 1020.55 1020.74 1020.92 1021.10 1021.26 1021.39 1021.50 1021.58 1021.62 1021.63 1021.60 1021.54 1021.45 1021.34 1021.21 1021.08 1020.94 1020.80 1020.66 1020.53
1017.47 1017.34 1017.22 1017.12 1017.04 1017.00 1016.99 1017.02 1017.09 1017.19 1017.31 1017.46 1017.62 1017.79 1017.96 1018.13 1018.30 1018.46 1018.61 1018.77 1018.93 1019.09 1019.26 1019.44 1019.63 1019.82 1020.02 1020.20 1020.38 1020.53 1020.66 1020.75 1020.81 1020.83 1020.82 1020.77 1020.69 1020.59 1020.47 1020.34 1020.21 1020.07 1019.93 1019.80
Thickness
5656 5662 5663 5660 5659 5659 5654 5649 5643 5645 5644 5644 5642 5636 5628 5620 5612 5605 5597 5590 5584 5578 5572 5567 5562 5559 5555 5552 5549 5547 5545 5541 5539 5536 5535 5533 5533 5532 5532 5532 5533 5534 5535 5536
5649 5657 5657 5652 5653 5654 5652 5650 5646 5644 5641 5642 5637 5630 5621 5614 5608 5601 5593 5586 5579 5573 5566 5561 5557 5552 5549 5545 5542 5540 5537 5534 5532 5530 5527 5526 5525 5524 5524 5523 5524 5525 5526 5527
5636 5647 5650 5638 5643 5646 5646 5646 5644 5639 5638 5635 5629 5624 5617 5611 5605 5598 5590 5582 5574 5568 5562 5556 5551 5547 5542 5539 5536 5533 5531 5528 5526 5524 5521 5519 5518 5517 5516 5516 5516 5517 5518 5519
5630 5638 5627 5636 5647 5646 5643 5641 5640 5638 5635 5631 5626 5619 5612 5607 5601 5593 5585 5578 5570 5563 5555 5550 5545 5541 5537 5533 5530 5528 5525 5523 5520 5518 5516 5514 5512 5510 5510 5509 5510 5510 5510 5512
5623 5623 5627 5638 5643 5642 5638 5634 5635 5632 5628 5622 5617 5611 5603 5600 5595 5588 5581 5573 5565 5557 5550 5545 5540 5536 5532 5528 5525 5523 5520 5518 5516 5514 5511 5509 5507 5505 5505 5505 5504 5504 5505 5506
5625 5624 5622 5632 5643 5646 5638 5628 5631 5628 5622 5616 5613 5604 5599 5594 5588 5581 5574 5566 5558 5551 5545 5540 5536 5532 5528 5524 5521 5519 5516 5514 5512 5510 5508 5506 5504 5503 5502 5501 5500 5501 5501 5502
5623 5621 5625 5637 5642 5642 5626 5624 5629 5624 5619 5613 5608 5603 5596 5590 5582 5575 5568 5561 5554 5547 5542 5536 5532 5528 5524 5521 5518 5516 5514 5511 5509 5507 5505 5503 5501 5501 5500 5499 5499 5499 5499 5499
5619 5618 5621 5637 5638 5631 5627 5628 5625 5620 5615 5608 5601 5595 5590 5584 5577 5569 5562 5555 5550 5543 5537 5532 5529 5525 5521 5518 5516 5514 5512 5509 5507 5505 5504 5502 5501 5500 5499 5498 5498 5497 5497 5498
5623 5621 5628 5631 5632 5630 5628 5624 5621 5615 5609 5603 5596 5590 5584 5577 5571 5565 5558 5552 5546 5540 5534 5529 5526 5523 5520 5517 5515 5512 5510 5508 5505 5504 5502 5501 5501 5500 5499 5498 5497 5497 5497 5497
5626 5628 5630 5629 5629 5627 5625 5622 5617 5612 5606 5600 5593 5586 5580 5573 5566 5560 5555 5549 5543 5538 5533 5528 5525 5522 5520 5517 5515 5512 5509 5507 5505 5504 5502 5501 5500 5500 5499 5499 5498 5499 5498 5498
5625 5628 5629 5628 5626 5623 5620 5617 5612 5607 5602 5597 5591 5583 5577 5571 5564 5559 5553 5547 5543 5538 5533 5529 5525 5522 5520 5517 5515 5512 5510 5508 5506 5505 5504 5502 5502 5501 5501 5501 5500 5501 5501 5501
5624 5627 5624 5623 5623 5621 5617 5612 5608 5603 5597 5593 5589 5582 5575 5569 5564 5558 5553 5547 5542 5538 5534 5530 5527 5524 5521 5519 5517 5514 5511 5509 5507 5506 5505 5504 5503 5503 5504 5504 5505 5505 5505 5505
5631 5630 5626 5625 5622 5619 5614 5610 5606 5601 5596 5590 5585 5580 5574 5568 5562 5557 5553 5548 5544 5540 5536 5533 5529 5526 5524 5522 5519 5516 5514 5512 5510 5509 5508 5507 5506 5506 5507 5508 5509 5510 5510 5510
5633 5630 5625 5622 5618 5616 5613 5608 5603 5598 5594 5589 5584 5579 5574 5568 5562 5558 5554 5550 5546 5543 5539 5535 5533 5530 5528 5525 5522 5520 5517 5516 5514 5512 5511 5510 5510 5510 5510 5511 5512 5514 5515 5515
5632 5630 5625 5621 5616 5613 5610 5606 5600 5595 5591 5587 5583 5579 5574 5569 5565 5561 5557 5553 5549 5545 5542 5539 5537 5534 5532 5529 5526 5524 5522 5520 5519 5517 5516 5515 5515 5515 5515 5516 5516 5517 5519 5521
5629 5626 5622 5618 5614 5611 5607 5604 5600 5595 5592 5588 5584 5580 5576 5573 5568 5563 5559 5556 5552 5549 5547 5544 5541 5539 5537 5534 5531 5529 5527 5526 5525 5523 5522 5521 5521 5521 5522 5522 5523 5524 5525 5527
5627 5622 5620 5616 5614 5611 5609 5606 5603 5599 5594 5591 5587 5583 5578 5574 5569 5565 5562 5559 5557 5554 5552 5549 5547 5545 5542 5539 5537 5535 5533 5532 5531 5530 5529 5529 5529 5529 5529 5529 5530 5531 5533 5534
5634 5631 5627 5623 5618 5614 5611 5609 5605 5602 5598 5595 5590 5585 5581 5577 5573 5570 5567 5563 5560 5557 5556 5555 5553 5550 5547 5545 5543 5541 5539 5538 5537 5536 5535 5535 5535 5536 5536 5537 5538 5539 5541 5541
5636 5633 5629 5626 5623 5619 5615 5612 5609 5605 5602 5598 5594 5589 5585 5582 5578 5575 5571 5567 5564 5562 5562 5560 5558 5555 5553 5551 5549 5547 5545 5544 5543 5542 5542 5542 5542 5543 5543 5544 5545 5546 5547 5548
5637 5634 5632 5629 5626 5622 5619 5616 5613 5609 5606 5602 5597 5592 5588 5585 5582 5579 5575 5573 5572 5572 5570 5567 5564 5561 5559 5557 5555 5553 5551 5550 5549 5549 5548 5548 5549 5549 5550 5551 5552 5553 5554 5555
5637 5635 5633 5630 5627 5625 5623 5620 5616 5612 5609 5605 5601 5597 5594 5590 5587 5583 5579 5578 5579 5577 5575 5572 5569 5567 5565 5563 5561 5559 5557 5556 5555 5555 5555 5555 5555 5556 5557 5558 5559 5560 5560 5562
5638 5635 5634 5631 5628 5626 5624 5622 5619 5616 5612 5608 5605 5602 5597 5593 5590 5587 5586 5586 5586 5583 5580 5577 5575 5574 5572 5569 5567 5565 5564 5563 5562 5562 5561 5561 5562 5562 5564 5565 5565 5566 5567 5568
5637 5636 5634 5632 5630 5627 5625 5623 5621 5618 5615 5613 5609 5606 5603 5600 5597 5593 5591 5592 5590 5588 5585 5583 5582 5580 5577 5574 5572 5571 5570 5569 5569 5569 5568 5568 5569 5569 5570 5571 5572 5573 5574 5575
5636 5635 5633 5632 5630 5627 5625 5624 5622 5620 5619 5616 5614 5611 5608 5603 5600 5600 5600 5598 5596 5593 5591 5589 5587 5585 5582 5580 5578 5577 5576 5576 5576 5576 5575 5576 5576 5576 5576 5577 5578 5579 5580 5580
5634 5633 5632 5630 5628 5627 5626 5624 5622 5620 5619 5617 5616 5614 5612 5610 5607 5606 5604 5602 5599 5597 5595 5595 5592 5589 5586 5585 5584 5583 5583 5583 5582 5582 5582 5582 5582 5583 5583 5583 5584 5585 5586 5587
5632 5630 5630 5629 5628 5627 5625 5623 5622 5620 5619 5617 5617 5616 5614 5612 5611 5609 5607 5605 5604 5601 5600 5599 5597 5594 5592 5591 5590 5590 5589 5589 5588 5587 5587 5588 5588 5588 5589 5589 5590 5590 5591 5592
5629 5628 5627 5627 5627 5626 5625 5624 5622 5622 5621 5619 5618 5618 5616 5614 5612 5611 5609 5608 5607 5605 5604 5603 5602 5600 5598 5597 5596 5595 5594 5594 5593 5593 5593 5593 5593 5594 5594 5595 5595 5595 5596 5596